Location: Unspecified
(48.2082°N, 0.0000°E)
Time: 18:25:40
(UTC+00:00)

Tiros 1 despin weight - Pass Details

Date: 29 June 2019
Orbit: 594 x 642 km, 48.2° (Epoch: 16 July)

Event Time Altitude Azimuth Distance (km) Brightness Sun altitude
Rises 03:21:23 0° 277° (W) 2,834 ? -5.9°
Reaches altitude 10° 03:25:04 10° 246° (WSW) 1,924 ? -5.5°
Maximum altitude 03:26:41 12° 224° (SW) 1,801 ? -5.3°
Drops below altitude 10° 03:28:18 10° 203° (SSW) 1,919 ? -5.1°
Sets 03:31:58 0° 171° (S) 2,817 ? -4.7°
